This is the latest recevied weather packets stored in our database for station/object LX1CU-13. If no packets are shown the sender has not sent any weather packets the latest 10 day(s).
| Time | Temp. | Humidity | Pressure | Rain* | Wind** | Luminosity | Snow |
|---|---|---|---|---|---|---|---|
| 1777807118 | 19.44° C | 59% | 1009.9 hPa | 0 mm | - | - | - |
| 1777806818 | 18.33° C | 59% | 1009.9 hPa | 0 mm | - | - | - |
| 1777806518 | 17.78° C | 59% | 1009.9 hPa | 0 mm | - | - | - |
| 1777806218 | 18.33° C | 58% | 1009.9 hPa | 0 mm | - | - | - |
| 1777805918 | 18.33° C | 57% | 1010.1 hPa | 0 mm | - | - | - |
| 1777805618 | 18.33° C | 56% | 1010 hPa | 0 mm | - | - | - |
| 1777805318 | 18.33° C | 55% | 1009.7 hPa | 0 mm | - | - | - |
| 1777805018 | 18.89° C | 54% | 1009.8 hPa | 0 mm | - | - | - |
| 1777804718 | 18.89° C | 53% | 1010 hPa | 0 mm | - | - | - |
| 1777804418 | 18.89° C | 53% | 1010.2 hPa | 0 mm | - | - | - |
| 1777804118 | 18.89° C | 52% | 1010 hPa | 0 mm | - | - | - |
| 1777803818 | 19.44° C | 49% | 1009.9 hPa | 0 mm | - | - | - |
| 1777803518 | 19.44° C | 49% | 1010.1 hPa | 0 mm | - | - | - |
| 1777803218 | 20° C | 47% | 1010 hPa | 0 mm | - | - | - |
| 1777802919 | 20° C | 48% | 1010 hPa | 0 mm | - | - | - |
| 1777802618 | 20° C | 48% | 1010 hPa | 0 mm | - | - | - |
| 1777802318 | 20° C | 46% | 1009.9 hPa | 0 mm | - | - | - |
| 1777802018 | 20.56° C | 46% | 1010 hPa | 0 mm | - | - | - |
| 1777801719 | 21.11° C | 45% | 1010 hPa | 0 mm | - | - | - |
| 1777801418 | 21.67° C | 46% | 1009.8 hPa | 0 mm | - | - | - |
| 1777801118 | 21.67° C | 45% | 1009.8 hPa | 0 mm | - | - | - |
| 1777800819 | 21.67° C | 45% | 1009.7 hPa | 0 mm | - | - | - |
| 1777800518 | 21.11° C | 46% | 1009.8 hPa | 0 mm | - | - | - |
| 1777800218 | 21.11° C | 45% | 1009.7 hPa | 0 mm | - | - | - |
| 1777799918 | 21.11° C | 44% | 1009.8 hPa | 0 mm | - | - | - |
* Rain latest hour (hover to see other rain measurements)
** Current wind speed in m/s (hover to see current wind gust speed)